N4CRH-13 Weather Reports


time (UTC)temp
C
wind
direction
speed
KPH
gust
KPH
rain 1hr
cm
rain 24hr
cm
rain mn
cm
humidity
%
barometer
mb
20260507224058 17 283 11.3 24.1 0.00 0.00 0.00 29 1292.6
20260507223554 17 284 16.1 17.7 0.00 0.00 0.00 29 1292.9
20260507223051 17 252 17.7 22.5 0.00 0.00 0.00 28 1292.6
20260507222548 16 310 12.9 17.7 0.00 0.00 0.00 32 1292.9
20260507222044 16 258 17.7 29.0 0.00 0.00 0.00 27 1292.9
20260507221541 15 277 19.3 24.1 0.00 0.00 0.00 31 1292.9
20260507221038 15 298 14.5 20.9 0.00 0.00 0.00 33 1292.9
20260507220535 17 283 24.1 29.0 0.00 0.00 0.00 29 1292.8
20260507220032 17 274 6.4 24.1 0.00 0.00 0.00 31 1293.0
20260507215528 17 258 20.9 32.2 0.00 0.00 0.00 29 1293.0
20260507215027 17 305 16.1 17.7 0.00 0.00 0.00 32 1293.0
20260507214523 16 261 16.1 22.5 0.00 0.00 0.00 30 1293.0
20260507214019 15 248 12.9 17.7 0.00 0.00 0.00 30 1293.0
20260507213516 16 293 20.9 29.0 0.00 0.00 0.00 31 1293.1
20260507213013 15 298 17.7 25.7 0.00 0.00 0.00 32 1293.1
20260507212508 15 241 17.7 20.9 0.00 0.00 0.00 30 1293.2
20260507212005 16 276 19.3 24.1 0.00 0.00 0.00 30 1293.4
20260507211502 17 300 12.9 20.9 0.00 0.00 0.00 35 1293.4
20260507210958 17 276 24.1 37.0 0.00 0.00 0.00 32 1293.4
20260507210455 17 294 24.1 33.8 0.00 0.00 0.00 32 1293.2
20260507205953 16 299 12.9 20.9 0.00 0.00 0.00 34 1293.1
20260507205450 16 304 11.3 17.7 0.00 0.00 0.00 33 1293.6
20260507204945 15 309 4.8 9.7 0.00 0.00 0.00 38 1293.5
20260507204442 16 289 14.5 17.7 0.00 0.00 0.00 36 1293.7
20260507203940 15 264 9.7 12.9 0.00 0.00 0.00 36 1293.7
20260507203437 15 296 1.6 9.7 0.00 0.00 0.00 34 1294.0
20260507202934 15 288 3.2 12.9 0.00 0.00 0.00 33 1294.1
20260507202430 15 293 3.2 9.7 0.00 0.00 0.00 33 1294.2
20260507201926 15 289 6.4 12.9 0.00 0.00 0.00 35 1294.2
20260507201416 15 308 14.5 17.7 0.00 0.00 0.00 39 1294.5
20260507200913 15 337 3.2 9.7 0.00 0.00 0.00 36 1294.5
20260507200409 15 293 1.6 3.2 0.00 0.00 0.00 39 1294.5
20260507195905 14 273 4.8 4.8 0.00 0.00 0.00 34 1294.5
20260507195403 13 253 6.4 9.7 0.00 0.00 0.00 35 1294.6
20260507194859 13 297 1.6 4.8 0.00 0.00 0.00 36 1294.5
20260507194355 13 299 6.4 8.0 0.00 0.00 0.00 39 1294.7
20260507193851 14 268 8.0 9.7 0.00 0.00 0.00 42 1294.7
20260507193350 13 295 4.8 11.3 0.00 0.00 0.00 42 1295.0
20260507192845 13 276 8.0 9.7 0.00 0.00 0.00 41 1294.6
20260507192341 13 303 9.7 12.9 0.00 0.00 0.00 42 1294.8
20260507191838 13 297 9.7 11.3 0.00 0.00 0.00 41 1294.7
20260507191335 13 246 6.4 11.3 0.00 0.00 0.00 42 1294.8
20260507190831 13 288 8.0 16.1 0.00 0.00 0.00 41 1294.7
20260507190330 13 258 6.4 11.3 0.00 0.00 0.00 41 1294.8
20260507185829 13 293 3.2 4.8 0.00 0.00 0.00 38 1294.8
20260507185325 13 266 20.9 24.1 0.00 0.00 0.00 42 1295.1
20260507184822 13 298 3.2 4.8 0.00 0.00 0.00 39 1295.3
20260507184320 12 285 4.8 9.7 0.00 0.00 0.00 38 1295.3
20260507183817 13 59 1.6 4.8 0.00 0.00 0.00 33 1295.2
20260507183314 13 64 1.6 3.2 0.00 0.00 0.00 37 1295.3
20260507182812 13 336 1.6 4.8 0.00 0.00 0.00 36 1295.3
20260507182307 13 276 3.2 3.2 0.00 0.00 0.00 41 1295.4
20260507181803 12 300 1.6 3.2 0.00 0.00 0.00 38 1295.4
20260507181259 12 273 3.2 4.8 0.00 0.00 0.00 39 1295.4
20260507180755 12 262 4.8 4.8 0.00 0.00 0.00 39 1295.4
20260507180253 12 281 1.6 1.6 0.00 0.00 0.00 41 1295.6
20260507175748 12 259 1.6 4.8 0.00 0.00 0.00 39 1295.4
20260507175245 12 294 1.6 4.8 0.00 0.00 0.00 38 1295.6
20260507174742 12 328 1.6 4.8 0.00 0.00 0.00 38 1295.3
20260507174241 12 290 1.6 1.6 0.00 0.00 0.00 40 1295.4
20260507173738 12 243 1.6 3.2 0.00 0.00 0.00 42 1295.4
20260507173229 12 285 4.8 8.0 0.00 0.00 0.00 40 1295.3
20260507172725 12 268 1.6 3.2 0.00 0.00 0.00 36 1295.7
20260507172222 12 281 3.2 9.7 0.00 0.00 0.00 38 1295.7
20260507171722 12 257 8.0 12.9 0.00 0.00 0.00 37 1295.6
20260507171220 12 283 0.0 1.6 0.00 0.00 0.00 36 1295.8
20260507170716 12 280 3.2 11.3 0.00 0.00 0.00 40 1296.0
20260507170214 12 301 0.0 8.0 0.00 0.00 0.00 38 1296.0
20260507165709 12 256 4.8 4.8 0.00 0.00 0.00 40 1295.9
20260507165205 11 261 4.8 11.3 0.00 0.00 0.00 40 1296.0
20260507164701 12 270 4.8 8.0 0.00 0.00 0.00 38 1295.9
20260507164159 12 247 4.8 8.0 0.00 0.00 0.00 39 1296.0
20260507163656 11 263 4.8 4.8 0.00 0.00 0.00 43 1296.0
20260507163154 11 291 1.6 4.8 0.00 0.00 0.00 42 1295.9
20260507162649 11 314 4.8 4.8 0.00 0.00 0.00 43 1296.2
20260507162146 12 287 4.8 8.0 0.00 0.00 0.00 41 1296.0
20260507161642 11 248 6.4 9.7 0.00 0.00 0.00 40 1296.3
20260507161139 11 296 3.2 4.8 0.00 0.00 0.00 43 1296.4
20260507160635 11 293 4.8 8.0 0.00 0.00 0.00 44 1296.4
20260507160132 10 278 1.6 4.8 0.00 0.00 0.00 45 1296.5
20260507155627 11 295 3.2 8.0 0.00 0.00 0.00 41 1296.3
20260507155124 11 298 4.8 12.9 0.00 0.00 0.00 40 1296.3
20260507154621 10 153 4.8 8.0 0.00 0.00 0.00 43 1296.3
20260507154118 10 281 3.2 9.7 0.00 0.00 0.00 42 1296.4
20260507153614 10 288 3.2 9.7 0.00 0.00 0.00 41 1296.4
20260507153111 10 262 6.4 12.9 0.00 0.00 0.00 39 1296.4
20260507152607 10 315 1.6 4.8 0.00 0.00 0.00 40 1296.3
20260507152103 10 307 3.2 4.8 0.00 0.00 0.00 40 1296.3
20260507151600 10 164 1.6 4.8 0.00 0.00 0.00 42 1296.4
20260507151057 9 256 4.8 11.3 0.00 0.00 0.00 42 1296.3
20260507150554 10 302 1.6 8.0 0.00 0.00 0.00 42 1296.4
20260507150051 8 255 3.2 14.5 0.00 0.00 0.00 47 1296.5
20260507145545 9 278 1.6 3.2 0.00 0.00 0.00 49 1296.7
20260507145044 7 22 1.6 3.2 0.00 0.00 0.00 54 1296.5
20260507144540 8 290 3.2 3.2 0.00 0.00 0.00 49 1296.5
20260507144038 7 274 1.6 3.2 0.00 0.00 0.00 52 1296.5
20260507143535 8 303 0.0 0.0 0.00 0.00 0.00 50 1296.2
20260507143032 8 177 1.6 3.2 0.00 0.00 0.00 55 1296.4
20260507142527 7 305 1.6 1.6 0.00 0.00 0.00 50 1296.5
20260507142024 7 153 1.6 4.8 0.00 0.00 0.00 56 1296.4
20260507141520 7 103 3.2 3.2 0.00 0.00 0.00 53 1296.7
20260507141017 6 304 8.0 14.5 0.00 0.00 0.00 50 1296.2
20260507140514 6 93 4.8 8.0 0.00 0.00 0.00 54 1296.2
20260507140012 5 48 3.2 8.0 0.00 0.00 0.00 62 1296.2
20260507135508 6 275 1.6 1.6 0.00 0.00 0.00 63 1296.3
20260507135006 5 281 1.6 1.6 0.00 0.00 0.00 57 1296.3
20260507134502 5 302 0.0 3.2 0.00 0.00 0.00 62 1296.2
20260507133958 4 263 3.2 3.2 0.00 0.00 0.00 61 1296.2
20260507133454 5 304 0.0 3.2 0.00 0.00 0.00 70 1296.2
20260507132952 5 120 3.2 3.2 0.00 0.00 0.00 65 1296.0
20260507132448 4 242 1.6 4.8 0.00 0.00 0.00 69 1295.9
20260507131945 3 281 0.0 0.0 0.00 0.00 0.00 67 1295.9
20260507131442 4 20 1.6 4.8 0.00 0.00 0.00 53 1295.9
20260507130939 4 333 0.0 1.6 0.00 0.00 0.00 59 1295.7
20260507130436 3 56 6.4 11.3 0.00 0.00 0.00 59 1295.7
20260507125935 3 296 4.8 12.9 0.00 0.00 0.00 47 1295.8
20260507125433 3 261 4.8 8.0 0.00 0.00 0.00 54 1295.8
20260507124929 2 134 1.6 3.2 0.00 0.00 0.00 62 1295.8
20260507124425 2 62 1.6 4.8 0.00 0.00 0.00 59 1295.4
20260507123924 3 54 4.8 8.0 0.00 0.00 0.00 55 1295.4
20260507123421 4 295 4.8 8.0 0.00 0.00 0.00 50 1295.3
20260507122918 4 183 4.8 11.3 0.00 0.00 0.00 49 1295.3
20260507122412 3 147 4.8 9.7 0.00 0.00 0.00 52 1295.2
20260507121909 3 164 1.6 8.0 0.00 0.00 0.00 52 1295.3
20260507121404 0 268 8.0 14.5 0.00 0.00 0.00 64 1295.4
20260507120901 -2 191 1.6 3.2 0.00 0.00 0.00 88 1295.4
20260507120357 -2 161 1.6 4.8 0.00 0.00 0.00 87 1295.2
20260507115854 -2 247 0.0 3.2 0.00 0.00 0.00 89 1295.4
20260507115350 -2 122 3.2 4.8 0.00 0.00 0.00 85 1295.3
20260507114846 -2 226 0.0 3.2 0.00 0.00 0.00 85 1295.4
20260507114343 -2 251 0.0 0.0 0.00 0.00 0.00 86 1295.6
20260507113840 -2 126 3.2 3.2 0.00 0.00 0.00 86 1295.3
20260507113337 -1 127 4.8 8.0 0.00 0.00 0.00 84 1295.2
20260507112835 -1 117 3.2 4.8 0.00 0.00 0.00 84 1295.1
20260507112332 -1 315 0.0 3.2 0.00 0.00 0.00 82 1295.4
20260507111829 -1 123 1.6 3.2 0.00 0.00 0.00 84 1295.4
20260507111326 -2 309 0.0 1.6 0.00 0.00 0.00 90 1295.2
20260507110822 -2 229 0.0 1.6 0.00 0.00 0.00 89 1295.4
20260507110319 -3 207 1.6 4.8 0.00 0.00 0.00 91 1295.4
20260507105815 -3 229 1.6 1.6 0.00 0.00 0.00 93 1295.6
20260507105312 -3 120 4.8 4.8 0.00 0.00 0.00 92 1295.7
20260507104809 -3 128 3.2 4.8 0.00 0.00 0.00 88 1295.3
20260507104305 -3 199 3.2 3.2 0.00 0.00 0.00 91 1295.6
20260507103802 -2 221 1.6 1.6 0.00 0.00 0.00 89 1295.3
20260507103258 -2 250 0.0 1.6 0.00 0.00 0.00 88 1295.3
20260507102754 -2 263 0.0 4.8 0.00 0.00 0.00 89 1295.4
20260507102251 -3 249 0.0 1.6 0.00 0.00 0.00 90 1295.7
20260507101747 -2 166 3.2 3.2 0.00 0.00 0.00 89 1295.3
20260507101242 -2 138 4.8 4.8 0.00 0.00 0.00 86 1295.4
20260507100740 -2 279 0.0 3.2 0.00 0.00 0.00 86 1295.4
20260507100238 -2 221 0.0 4.8 0.00 0.00 0.00 89 1295.3
20260507095736 -2 241 3.2 4.8 0.00 0.00 0.00 85 1295.7
20260507095227 -2 279 0.0 1.6 0.00 0.00 0.00 81 1295.8
20260507094724 -2 195 3.2 3.2 0.00 0.00 0.00 82 1295.7
20260507094221 -2 277 1.6 1.6 0.00 0.00 0.00 86 1295.7
20260507093717 -2 243 0.0 3.2 0.00 0.00 0.00 88 1295.6
20260507093215 -2 269 0.0 1.6 0.00 0.00 0.00 87 1295.7
20260507092713 -2 209 1.6 8.0 0.00 0.00 0.00 86 1295.7
20260507092209 -1 213 1.6 3.2 0.00 0.00 0.00 82 1295.7
20260507091706 -2 259 0.0 1.6 0.00 0.00 0.00 85 1295.7
20260507091202 -1 258 0.0 4.8 0.00 0.00 0.00 82 1295.7
20260507090657 -2 25 1.6 3.2 0.00 0.00 0.00 84 1295.8
20260507090154 -2 134 4.8 8.0 0.00 0.00 0.00 86 1295.7
20260507085651 -2 121 3.2 3.2 0.00 0.00 0.00 87 1296.0
20260507085148 -1 301 0.0 3.2 0.00 0.00 0.00 79 1295.9
20260507084645 -2 248 0.0 3.2 0.00 0.00 0.00 84 1296.0
20260507084136 -2 283 1.6 4.8 0.00 0.00 0.00 82 1295.9
20260507083633 -3 223 0.0 3.2 0.00 0.00 0.00 89 1296.2
20260507083129 -2 237 1.6 1.6 0.00 0.00 0.00 87 1295.8
20260507082626 -2 210 1.6 3.2 0.00 0.00 0.00 87 1295.9
20260507082122 -3 262 4.8 4.8 0.00 0.00 0.00 94 1296.0
20260507081619 -3 279 0.0 1.6 0.00 0.00 0.00 95 1296.0
20260507081115 -4 250 1.6 3.2 0.00 0.00 0.00 96 1295.8
20260507080611 -4 207 1.6 1.6 0.00 0.00 0.00 96 1296.0
20260507080108 -4 234 1.6 3.2 0.00 0.00 0.00 96 1296.2
20260507075603 -4 161 3.2 3.2 0.00 0.00 0.00 96 1296.2
20260507075059 -4 269 0.0 3.2 0.00 0.00 0.00 96 1296.3
20260507074556 -4 220 0.0 3.2 0.00 0.00 0.00 96 1296.3
20260507074055 -4 217 0.0 3.2 0.00 0.00 0.00 96 1296.0
20260507073550 -3 199 4.8 4.8 0.00 0.00 0.00 96 1296.4
20260507073047 -4 252 0.0 1.6 0.00 0.00 0.00 96 1296.3
20260507072544 -5 259 0.0 3.2 0.00 0.00 0.00 96 1296.5
20260507072041 -4 200 1.6 3.2 0.00 0.00 0.00 96 1296.5
20260507071539 -4 216 3.2 3.2 0.00 0.00 0.00 96 1296.4
20260507071035 -4 251 0.0 1.6 0.00 0.00 0.00 96 1296.7
20260507070533 -4 215 1.6 4.8 0.00 0.00 0.00 96 1296.5
20260507070030 -4 149 3.2 3.2 0.00 0.00 0.00 96 1296.3
20260507065526 -3 188 1.6 3.2 0.00 0.00 0.00 95 1296.5
20260507065023 -3 216 1.6 1.6 0.00 0.00 0.00 96 1296.5
20260507064521 -4 217 1.6 3.2 0.00 0.00 0.00 95 1296.7
20260507064019 -4 229 1.6 3.2 0.00 0.00 0.00 95 1296.5
20260507063516 -3 244 0.0 1.6 0.00 0.00 0.00 95 1296.5
20260507063014 -3 194 1.6 3.2 0.00 0.00 0.00 95 1296.5
20260507062510 -3 233 1.6 3.2 0.00 0.00 0.00 95 1296.7
20260507062008 -3 220 0.0 1.6 0.00 0.00 0.00 94 1296.5
20260507061505 -3 277 0.0 1.6 0.00 0.00 0.00 93 1296.5
20260507061003 -3 122 3.2 4.8 0.00 0.00 0.00 92 1296.7
20260507060500 -3 196 1.6 3.2 0.00 0.00 0.00 92 1296.7
20260507055956 -2 188 3.2 3.2 0.00 0.03 0.03 92 1296.4
20260507055452 -3 202 0.0 1.6 0.00 0.03 0.03 91 1296.3
20260507054949 -2 234 1.6 3.2 0.00 0.03 0.03 90 1296.2
20260507054444 -2 210 1.6 1.6 0.00 0.03 0.03 91 1296.4
20260507053942 -2 239 1.6 8.0 0.00 0.03 0.03 92 1296.2
20260507053440 -2 216 0.0 3.2 0.00 0.03 0.03 93 1296.0
20260507052938 -2 198 1.6 4.8 0.00 0.03 0.03 93 1296.3
20260507052435 -2 254 0.0 1.6 0.00 0.03 0.03 93 1296.3
20260507051932 -2 264 0.0 3.2 0.00 0.03 0.03 93 1296.4
20260507051430 -2 243 1.6 3.2 0.00 0.03 0.03 93 1296.2
20260507050926 -2 225 3.2 3.2 0.00 0.03 0.03 94 1296.2
20260507050423 -2 254 0.0 3.2 0.00 0.03 0.03 94 1296.3
20260507045920 -2 168 3.2 3.2 0.00 0.03 0.03 92 1296.3
20260507045416 -2 249 0.0 3.2 0.00 0.03 0.03 91 1296.2
20260507044908 -1 177 1.6 4.8 0.00 0.03 0.03 90 1296.2
20260507044405 -1 292 1.6 8.0 0.00 0.03 0.03 90 1296.0
20260507043901 -1 228 3.2 9.7 0.00 0.03 0.03 91 1296.0
20260507043357 -1 191 1.6 9.7 0.00 0.03 0.03 90 1296.2
20260507042853 -1 212 1.6 4.8 0.00 0.03 0.03 90 1296.0
20260507042350 -1 299 3.2 3.2 0.00 0.03 0.03 91 1296.0
20260507041846 -1 228 3.2 8.0 0.00 0.03 0.03 92 1296.0
20260507041343 -1 175 6.4 9.7 0.00 0.03 0.03 92 1296.0
20260507040840 -1 211 3.2 9.7 0.00 0.03 0.03 93 1296.0
20260507040336 -2 251 3.2 11.3 0.00 0.03 0.03 93 1295.7
20260507035832 -1 127 6.4 8.0 0.00 0.03 0.03 93 1296.0
20260507035328 -1 211 1.6 8.0 0.00 0.03 0.03 92 1295.8
20260507034826 -1 284 3.2 8.0 0.00 0.03 0.03 92 1295.7
20260507034322 -1 207 4.8 8.0 0.00 0.03 0.03 93 1295.8
20260507033820 -1 238 3.2 9.7 0.00 0.03 0.03 92 1295.9
20260507033318 -1 221 6.4 11.3 0.00 0.03 0.03 94 1295.9
20260507032815 -1 208 4.8 8.0 0.00 0.03 0.03 94 1295.7
20260507032311 -1 178 3.2 8.0 0.00 0.03 0.03 94 1296.0
20260507031808 -1 202 4.8 8.0 0.00 0.03 0.03 94 1295.8
20260507031304 -1 231 3.2 8.0 0.00 0.03 0.03 93 1295.4
20260507030801 -1 193 1.6 4.8 0.00 0.03 0.03 93 1295.8
20260507030258 -1 18 1.6 4.8 0.00 0.03 0.03 93 1295.6
20260507025756 -1 273 4.8 4.8 0.00 0.03 0.03 92 1295.6
20260507025253 -1 137 8.0 11.3 0.00 0.03 0.03 92 1295.4
20260507024751 -1 184 3.2 3.2 0.00 0.03 0.03 93 1295.4
20260507024247 -1 250 1.6 3.2 0.00 0.03 0.03 93 1295.2
20260507023743 -1 228 1.6 4.8 0.00 0.03 0.03 92 1295.4
20260507023240 0 264 3.2 9.7 0.00 0.03 0.03 91 1295.4
20260507022737 0 183 8.0 12.9 0.00 0.03 0.03 90 1295.2
20260507022233 0 273 3.2 4.8 0.00 0.03 0.03 90 1295.3
20260507021730 0 120 11.3 17.7 0.00 0.03 0.03 89 1295.4
20260507021225 0 197 8.0 11.3 0.00 0.03 0.03 89 1295.2
20260507020724 0 137 11.3 14.5 0.00 0.03 0.03 88 1295.2
20260507020220 0 110 8.0 14.5 0.00 0.03 0.03 89 1295.3
20260507015718 0 169 8.0 14.5 0.00 0.03 0.03 89 1295.2
20260507015215 0 103 4.8 11.3 0.00 0.03 0.03 89 1295.1
20260507014711 0 145 8.0 14.5 0.00 0.03 0.03 89 1295.3
20260507014208 0 242 4.8 12.9 0.00 0.03 0.03 90 1295.3
20260507013704 0 247 1.6 8.0 0.00 0.03 0.03 90 1295.3
20260507013202 0 286 0.0 0.0 0.00 0.03 0.03 87 1295.2
20260507012659 1 274 0.0 0.0 0.00 0.03 0.03 86 1295.6
20260507012154 1 298 0.0 0.0 0.00 0.03 0.03 86 1295.4
20260507011652 1 292 0.0 3.2 0.00 0.03 0.03 85 1295.4
20260507011148 2 193 1.6 4.8 0.00 0.03 0.03 84 1295.4
20260507010643 2 240 3.2 8.0 0.00 0.03 0.03 84 1295.3
20260507010139 2 249 3.2 9.7 0.00 0.03 0.03 84 1295.1
20260507005637 2 279 1.6 9.7 0.00 0.03 0.03 84 1295.2
20260507005133 1 185 6.4 8.0 0.00 0.03 0.03 85 1295.3
20260507004630 1 195 8.0 12.9 0.00 0.03 0.03 85 1295.2
20260507004128 1 124 8.0 11.3 0.00 0.03 0.03 85 1295.1
20260507003624 1 122 6.4 8.0 0.00 0.03 0.03 83 1295.2
20260507003119 1 181 3.2 14.5 0.00 0.03 0.03 83 1295.2
20260507002616 1 231 3.2 11.3 0.00 0.03 0.03 84 1295.2
20260507002111 1 177 6.4 8.0 0.00 0.03 0.03 85 1295.2
20260507001608 1 228 3.2 8.0 0.00 0.03 0.03 85 1295.3
20260507001106 1 253 4.8 11.3 0.00 0.03 0.03 85 1295.3
20260507000602 0 170 1.6 4.8 0.00 0.03 0.03 87 1295.4
20260507000057 0 220 4.8 8.0 0.00 0.03 0.03 87 1295.4
20260506235555 0 147 1.6 11.3 0.00 0.03 0.03 87 1295.4
20260506235050 0 160 4.8 8.0 0.00 0.03 0.03 87 1295.7
20260506234548 0 94 1.6 8.0 0.00 0.03 0.03 87 1295.6
20260506234045 0 123 3.2 8.0 0.00 0.03 0.03 86 1295.7
20260506233542 0 148 8.0 17.7 0.00 0.03 0.03 84 1295.3
20260506233039 0 123 6.4 16.1 0.00 0.03 0.03 84 1295.6
20260506232535 1 294 6.4 16.1 0.00 0.03 0.03 82 1295.4
20260506232030 0 172 17.7 20.9 0.00 0.03 0.03 83 1295.4
20260506231528 0 123 8.0 11.3 0.00 0.03 0.03 86 1295.3
20260506231026 1 127 6.4 11.3 0.00 0.03 0.03 85 1295.3
20260506230522 0 142 4.8 8.0 0.00 0.03 0.03 86 1295.4
20260506230020 0 153 6.4 11.3 0.00 0.03 0.03 86 1295.2
20260506225516 0 124 3.2 11.3 0.00 0.03 0.03 88 1295.3
20260506225012 0 109 4.8 9.7 0.00 0.03 0.03 88 1295.6
20260506224509 0 131 11.3 12.9 0.00 0.03 0.03 89 1295.6